Probability
3 3 6 8 9 9 8 6 5 6 9 10 9 8 7 6 6 7 7 7 7 6 6 6 5 4 4 4 4 3 3 3 2 2 3 3 1 0 0 0 0 0 0
2 3 4 6 7 7 6 6 6 6 8 9 9 9 8 7 7 8 8 8 8 7 6 5 4 3 3 4 3 3 3 3 3 3 3 3 2 1 0 0 0 0 0
2 3 3 4 5 4 4 5 6 6 7 9 9 9 9 9 8 8 9 9 8 7 6 5 4 4 4 4 3 3 3 3 3 3 4 5 4 1 0 0 1 1 1
3 3 3 3 3 3 3 4 5 5 6 7 9 9 9 9 8 8 8 8 7 6 6 6 6 6 6 5 4 4 4 4 3 4 5 5 4 3 1 1 2 1 1
5 5 4 3 2 1 2 4 5 5 6 7 7 8 8 8 7 7 7 6 5 5 5 6 6 6 6 5 5 5 5 5 4 4 5 5 4 3 2 2 3 2 1
5 5 4 2 1 2 3 4 6 7 7 7 6 6 6 6 6 6 6 6 6 5 4 4 4 4 4 4 4 4 4 5 4 5 5 4 3 3 3 2 3 3 2
4 4 4 3 2 3 4 4 5 7 7 7 6 5 3 3 4 3 4 5 6 6 4 3 3 3 3 3 3 2 3 4 4 5 4 3 3 3 3 3 3 3 3
3 3 3 2 2 2 3 3 4 5 6 6 5 4 2 2 2 1 2 4 5 5 4 3 3 3 3 3 3 3 3 3 3 3 3 3 3 3 3 3 3 3 3
3 3 2 1 1 1 1 1 1 2 2 3 3 3 3 3 3 1 1 3 4 4 3 3 3 3 3 3 3 3 3 3 3 2 2 2 2 2 3 3 3 3 3
3 2 1 0 0 0 0 0 0 1 1 1 2 3 4 5 4 2 1 3 4 3 3 3 3 3 3 3 3 3 3 3 3 2 2 2 2 2 2 2 3 3 3
4 2 0 0 0 0 0 0 0 1 2 2 3 4 5 5 4 2 1 2 3 3 3 3 3 3 3 2 2 3 3 3 3 3 3 2 2 2 2 2 2 3 3
4 3 1 0 0 0 0 1 1 1 3 3 4 5 5 4 2 1 0 1 2 3 3 3 3 3 2 1 1 2 2 3 3 3 3 3 3 3 3 2 2 2 3
4 3 2 1 1 1 1 2 2 3 3 3 4 4 3 1 0 0 0 0 1 2 2 2 2 1 1 0 1 1 1 1 3 3 3 3 3 3 3 3 2 2 3
4 4 3 3 3 2 3 3 3 3 3 3 2 1 1 0 0 0 0 0 0 1 1 1 1 1 1 1 1 1 0 1 2 3 3 3 3 3 3 3 3 3 3
4 4 4 4 4 3 3 3 3 3 3 2 1 0 0 0 0 0 1 0 0 0 0 0 0 1 2 2 2 1 0 1 2 2 2 3 3 3 3 3 3 2 2
5 4 3 3 3 3 3 3 3 3 2 1 0 0 0 0 0 0 0 0 0 0 0 0 0 1 1 1 1 0 0 0 1 1 1 1 2 2 2 2 1 1 1
5 4 3 2 1 1 2 2 3 3 2 1 1 0 0 0 0 0 0 0 0 0 0 0 0 0 0 0 0 0 0 0 0 0 0 0 1 1 1 1 0 0 1
4 3 3 1 0 0 1 1 1 2 2 2 2 1 0 0 0 0 0 0 0 0 0 1 1 1 0 0 0 0 0 0 0 0 0 0 0 0 0 0 0 0 1
2 2 2 1 0 0 0 0 0 1 2 3 2 1 0 0 0 0 0 1 1 0 0 1 1 1 0 0 0 0 0 0 0 0 0 0 0 0 0 0 0 0 1
1 1 1 1 0 0 0 0 0 0 1 1 2 1 1 0 0 0 0 1 1 0 0 0 0 0 0 0 0 0 0 0 0 0 0 0 0 0 0 0 0 0 0
0 0 0 0 0 0 0 0 0 0 0 0 1 1 1 1 1 0 0 1 1 0 0 0 0 0 0 0 0 0 0 0 0 0 0 0 0 0 0 0 0 0 0
0 0 0 0 0 0 0 0 0 1 0 0 0 0 0 1 2 1 0 0 0 0 0 0 0 0 0 0 0 0 0 0 0 0 0 0 0 0 0 0 0 0 0
0 0 0 0 0 0 0 0 0 0 0 0 0 0 0 1 2 1 0 0 0 0 0 0 0 0 0 0 0 0 0 0 0 0 0 0 0 0 0 0 0 0 0
0 0 0 0 0 0 0 0 0 0 0 0 0 0 0 0 1 1 0 1 1 1 1 1 1 0 0 0 0 0 0 0 0 0 0 0 0 0 0 0 0 0 0
0 0 0 0 0 0 0 0 0 0 0 0 0 0 0 0 0 0 0 1 2 2 2 2 1 0 0 0 0 0 0 0 0 0 0 0 0 0 0 0 0 0 0
0 0 0 0 0 0 0 0 0 0 0 0 0 0 0 0 0 0 0 1 1 2 2 2 1 0 0 0 0 0 0 0 0 0 0 0 0 0 0 0 0 0 0
Wind_Speed
1 1 1 0 0 0 0 1 1 1 1 1 2 2 2 2 2 2 2 2 3 3 3 3 3 2 2 2 2 2 2 2 2 2 1 2 2 2 2 2 2 2 2
1 1 1 1 0 0 1 1 1 1 1 2 2 2 2 3 3 3 3 3 3 3 3 3 3 2 2 2 2 2 2 2 2 3 2 1 2 2 2 2 2 2 2
1 1 0 1 1 2 2 2 1 2 2 2 2 3 3 3 3 3 3 3 3 3 3 4 3 3 3 2 3 2 2 2 2 2 2 1 1 1 2 2 2 2 2
1 1 2 2 2 3 2 2 2 2 2 2 2 3 3 3 3 3 3 3 3 3 3 3 3 4 4 4 3 3 2 2 1 1 1 1 1 1 1 1 2 2 2
2 2 3 3 3 2 2 2 2 2 3 2 2 3 3 3 3 3 3 3 3 3 2 3 3 3 4 4 3 3 3 2 2 1 2 1 1 1 1 1 2 2 2
2 3 3 3 3 3 3 3 2 3 3 2 2 3 3 3 3 5 4 3 3 3 3 2 3 3 3 4 4 4 5 4 4 3 2 2 3 3 2 1 1 1 2
3 3 3 3 3 3 4 3 3 3 3 3 3 3 4 4 5 5 6 4 4 3 3 3 2 2 2 3 3 3 3 4 5 5 4 4 4 4 3 3 2 2 3
3 3 3 3 3 3 3 3 3 3 3 3 3 3 3 4 5 6 6 5 4 4 4 4 4 3 3 3 2 2 3 3 4 5 5 5 5 4 4 4 4 3 2
2 3 3 3 3 3 3 3 3 2 3 3 3 3 3 4 4 6 6 4 3 4 4 4 4 4 4 4 3 3 3 3 3 4 5 5 5 5 4 2 2 2 2
3 3 3 3 3 3 3 3 2 2 3 3 3 3 3 4 4 5 6 4 4 3 3 3 5 5 5 5 4 4 4 4 3 2 3 3 3 3 5 5 4 3 2
3 2 2 2 3 3 2 2 2 2 2 2 3 3 3 4 4 5 6 4 4 4 3 3 3 5 5 6 5 5 6 4 3 3 2 2 2 2 3 4 4 4 4
2 1 2 2 2 1 1 1 1 1 2 2 2 2 2 3 3 4 6 7 5 4 4 3 3 5 6 6 5 5 6 4 2 2 2 2 2 2 3 3 4 5 5
1 2 2 2 1 1 1 1 1 1 1 1 2 2 2 2 2 4 5 7 7 5 4 4 5 5 5 4 6 6 5 3 3 3 3 3 3 3 2 2 2 3 4
2 2 2 1 1 1 1 1 1 1 1 2 2 2 2 2 2 2 2 3 4 4 3 3 4 4 4 4 3 3 3 4 4 4 4 3 2 2 2 2 2 2 2
2 2 1 1 1 1 1 1 2 2 2 2 3 3 3 3 4 5 4 3 4 4 3 2 1 1 2 2 2 3 3 3 4 4 3 3 3 3 2 2 2 2 3
2 2 1 1 1 1 1 2 2 2 2 2 3 3 3 4 4 3 4 5 4 5 4 2 2 3 3 3 3 3 3 4 4 4 4 4 4 4 3 2 2 3 3
3 2 1 1 1 2 1 1 2 2 3 3 3 3 3 3 3 3 3 2 3 5 3 2 3 3 3 3 3 3 3 3 3 4 4 4 4 4 4 4 3 3 3
2 2 2 2 2 2 2 1 1 1 2 3 3 3 3 3 2 2 2 3 2 2 2 2 3 3 3 3 3 3 4 3 3 4 4 4 4 4 4 4 4 4 4
2 1 2 1 1 1 1 1 1 1 1 2 2 3 3 2 1 0 3 1 2 2 2 2 2 3 3 3 3 3 3 3 3 4 4 4 4 4 4 4 4 4 4
1 2 1 1 0 0 0 0 1 1 1 1 2 2 1 1 1 1 1 1 1 1 2 2 2 2 2 2 2 2 2 3 3 3 4 4 3 4 4 5 4 4 3
1 1 0 0 0 0 0 1 1 1 1 1 2 2 1 1 1 1 1 1 1 2 2 2 2 2 2 2 2 2 2 2 2 3 3 3 3 3 3 3 3 3 3
1 1 1 0 0 1 1 1 1 1 1 1 1 2 0 0 0 1 1 1 1 1 2 2 2 2 2 2 2 2 2 2 2 2 2 2 2 3 3 3 3 2 2
1 1 1 1 1 1 1 0 0 1 1 1 1 1 1 1 1 1 1 2 1 1 1 1 1 1 1 1 1 2 2 3 3 2 2 2 2 3 3 3 3 3 3
1 1 1 1 1 1 1 1 1 1 1 1 1 1 1 1 1 2 2 2 1 1 1 1 1 2 2 1 1 2 2 3 2 2 2 2 2 2 2 2 2 3 2
1 1 1 1 1 1 1 1 1 1 1 1 1 2 2 1 1 1 1 1 1 1 1 1 1 1 2 2 2 2 2 2 1 1 1 2 2 2 2 2 1 1 1
1 1 1 1 1 1 1 1 1 1 1 1 1 1 2 2 2 2 1 1 1 1 1 1 1 1 2 2 3 3 2 2 1 1 1 1 1 1 1 1 1 1 1
Wind_Direction
183 186 177 221 177 111 173 214 215 224 214 213 217 207 215 220 211 197 201 185 177 187 189 182 195 186 180 180 176 172 180 183 226 264 258 274 261 277 295 278 274 270 274
191 194 208 248 254 243 260 255 225 223 230 223 216 215 223 217 207 200 202 199 192 199 200 188 202 190 183 185 183 192 202 200 205 247 270 280 268 277 285 284 289 282 278
181 189 257 277 258 249 250 256 249 235 230 221 213 222 229 219 210 205 200 202 199 202 201 197 203 188 195 195 191 197 203 198 198 218 258 272 277 300 303 292 296 297 289
194 211 238 250 247 249 244 238 241 242 239 232 221 223 224 219 214 207 199 204 198 203 206 203 203 199 202 201 200 199 189 181 182 204 246 272 274 301 285 289 299 301 299
208 225 239 246 246 249 253 247 241 241 242 240 231 233 226 216 211 197 197 202 197 204 214 219 221 216 204 201 200 193 185 187 187 199 233 249 252 254 251 258 269 296 283
222 240 247 242 241 246 248 251 246 244 243 236 229 228 228 229 212 198 194 195 194 198 218 233 235 226 216 206 203 195 189 192 201 205 222 237 246 240 241 241 249 292 284
235 247 249 244 247 251 251 248 244 239 233 237 235 229 234 237 218 206 202 194 198 206 216 226 238 232 217 213 212 213 213 213 204 198 215 231 237 229 218 231 229 234 249
252 255 256 253 258 258 250 250 248 236 231 235 235 227 233 237 214 205 201 199 204 218 222 220 221 233 220 200 198 211 229 230 221 216 224 236 240 232 214 219 228 240 258
265 269 264 255 254 255 254 254 248 234 236 235 233 226 230 249 227 211 199 195 208 229 234 226 218 226 227 201 193 217 239 251 238 228 237 248 248 237 211 189 193 208 256
260 267 268 259 247 247 252 257 254 229 232 236 243 235 227 241 236 214 195 189 205 226 235 232 222 222 222 207 206 211 235 245 239 242 255 269 260 238 208 205 204 207 229
265 271 272 264 257 248 253 258 248 235 235 238 249 253 238 239 239 220 201 195 205 216 225 230 229 220 222 218 216 218 228 233 229 232 246 254 255 241 221 218 216 211 217
275 279 283 274 272 274 259 264 249 221 224 244 256 273 261 245 235 224 209 208 205 207 222 228 228 220 224 223 221 227 228 225 223 226 236 243 246 247 242 230 228 230 231
284 280 280 283 288 295 257 255 267 232 225 235 236 255 270 264 250 229 215 213 215 216 226 226 232 227 224 228 232 233 223 214 213 221 237 244 241 241 246 243 241 237 248
250 269 272 270 302 336 319 260 244 233 230 235 242 247 258 263 258 241 221 215 214 220 229 227 227 222 220 230 236 229 220 216 213 224 232 237 234 230 231 231 238 241 253
246 260 262 252 257 291 295 265 243 250 233 230 243 234 232 248 252 236 215 212 206 205 189 192 210 228 235 236 238 235 223 216 219 223 224 227 227 233 240 227 223 227 233
238 254 252 254 250 252 275 301 298 267 291 268 264 250 247 246 257 240 229 224 206 177 165 198 221 228 233 236 236 237 228 223 223 221 220 222 227 230 236 229 224 227 242
222 228 232 236 239 245 246 259 299 322 337 321 291 274 263 266 261 252 233 199 172 160 174 215 226 231 235 238 235 234 237 233 224 224 225 226 226 227 228 231 227 228 241
227 234 235 239 234 230 230 237 251 274 306 318 319 305 292 285 276 259 186 131 126 159 209 230 239 241 241 243 244 242 243 237 226 226 229 231 226 225 227 231 230 234 242
228 240 232 236 234 221 216 214 240 272 282 302 323 323 313 316 350 96 149 160 194 208 222 235 242 245 249 251 252 251 249 244 238 231 232 232 227 223 228 231 231 233 237
237 252 233 216 225 208 210 217 260 278 290 303 308 307 335 32 24 36 161 204 230 246 245 245 253 256 259 259 256 254 251 248 243 238 240 236 227 220 224 228 228 228 234
215 257 290 97 304 255 229 232 239 243 269 289 294 309 283 202 251 262 230 231 237 252 259 259 261 270 272 275 273 267 258 254 249 241 237 232 223 220 224 226 227 231 243
187 188 168 192 236 270 273 246 238 235 261 289 310 334 319 94 353 323 300 285 277 274 276 270 271 275 272 266 266 266 265 265 258 244 234 226 222 225 228 234 236 237 241
176 173 175 235 232 252 261 264 244 258 279 288 310 336 348 294 291 289 288 292 289 285 291 280 268 274 271 262 256 253 260 262 254 242 235 232 230 227 225 229 237 244 246
182 191 202 238 250 244 254 275 274 277 288 292 297 290 281 270 276 283 287 294 295 300 301 299 293 288 285 283 276 274 277 276 263 244 230 232 234 232 224 226 232 239 247
175 187 192 202 213 235 246 265 276 281 287 288 288 287 288 289 286 284 283 285 283 290 308 316 314 307 304 305 305 301 306 296 289 277 228 219 225 228 213 210 215 232 246
168 183 201 223 236 241 240 247 260 271 281 287 287 287 290 292 288 286 293 295 288 296 308 314 318 316 314 306 309 315 328 330 325 297 232 184 177 181 178 184 197 213 233